Weather History for Hatteras, NC

Change the Weather History Date:

Thursday, February 7, 2013

  Actual Average Record
Temperature  
Mean Temperature 56 °F 46 °F  
Max Temperature 61 °F 53 °F 70 °F (1884)
Min Temperature 50 °F 39 °F 18 °F (1910)
Degree Days  
Heating Degree Days 9 19  
Month to date heating degree days 118 133  
Since 1 July heating degree days 1379 1546  
Cooling Degree Days 0 0  
Month to date cooling degree days 0 0  
Year to date cooling degree days 0 0  
Growing Degree Days 5 (Base 50)    
Moisture  
Dew Point 47 °F    
Average Humidity 72    
Maximum Humidity 83    
Minimum Humidity 60    
Precipitation  
Precipitation 0.21 in 0.14 in 2.73 in (1968)
Month to date precipitation 0.21 1.06  
Year to date precipitation 2.38 6.30  
Snow  
Snow 0.00 in - - ()
Month to date snowfall 0.0  
Since 1 July snowfall 0.0  
Snow Depth 0.00 in    
Sea Level Pressure  
Sea Level Pressure 30.21 in    
Wind  
Wind Speed 12 mph (ENE)    
Max Wind Speed 23 mph    
Max Gust Speed 36 mph    
Visibility 9 miles    
Events Rain    
T = Trace of Precipitation, MM = Missing Value Source: NWS Daily Summary

Daily Weather History Graph

Daily Weather History Graph

Search for Another Location

Airport:

Trip Planner

Search our weather history database for the weather conditions in past years. The results will help you decide how hot, cold, wet, or windy it might be!

Date:

Astronomy

Feb. 07, 2013 Rise Set
Actual Time 6:56 AM EST 5:37 PM EST
Civil Twilight 6:30 AM EST 6:03 PM EST
Nautical Twilight 6:00 AM EST 6:33 PM EST
Astronomical Twilight 5:30 AM EST 7:03 PM EST
Moon 4:30 AM EST (2/7) 3:02 PM EST (2/7)
Length of Visible Light 11h 33m
Length of Day
10h 40m
Waning Crescent, 9% of the Moon is Illuminated
Feb 7
Waning Crescent
Feb 10
New
Feb 17
First Quarter
Feb 25
Full
Mar 4
Last Quarter

Hourly Weather History & Observations

Time (EST) Temp. Dew Point Humidity Pressure Visibility Wind Dir Wind Speed Gust Speed Precip Events Conditions
12:51 AM 50.0 °F 44.1 °F 80% 30.27 in 10.0 mi ENE 5.8 mph - N/A   Clear
1:51 AM 50.0 °F 44.1 °F 80% 30.30 in 10.0 mi NE 5.8 mph - N/A   Clear
2:51 AM 51.1 °F 45.0 °F 80% 30.27 in 10.0 mi ENE 6.9 mph - N/A   Clear
3:51 AM 51.1 °F 45.0 °F 80% 30.26 in 10.0 mi ENE 8.1 mph - N/A   Clear
4:51 AM 51.1 °F 45.0 °F 80% 30.27 in 10.0 mi NE 6.9 mph - N/A   Clear
5:51 AM 51.1 °F 45.0 °F 80% 30.28 in 10.0 mi ENE 5.8 mph - N/A   Clear
6:51 AM 52.0 °F 45.0 °F 77% 30.28 in 10.0 mi NE 5.8 mph - N/A   Clear
7:51 AM 54.0 °F 45.0 °F 72% 30.29 in 10.0 mi ENE 8.1 mph - N/A   Clear
8:51 AM 57.9 °F 46.9 °F 67% 30.30 in 10.0 mi ENE 8.1 mph - N/A   Clear
9:51 AM 59.0 °F 46.0 °F 62% 30.29 in 10.0 mi ENE 8.1 mph 18.4 mph N/A   Scattered Clouds
10:51 AM 60.1 °F 46.9 °F 62% 30.30 in 10.0 mi ENE 11.5 mph 18.4 mph N/A   Mostly Cloudy
11:51 AM 60.1 °F 46.9 °F 62% 30.28 in 10.0 mi East 11.5 mph 20.7 mph N/A   Overcast
12:51 PM 60.1 °F 46.0 °F 60% 30.24 in 10.0 mi East 16.1 mph 23.0 mph N/A   Mostly Cloudy
1:51 PM 60.1 °F 46.0 °F 60% 30.21 in 10.0 mi East 12.7 mph 19.6 mph N/A   Overcast
2:51 PM 59.0 °F 46.9 °F 64% 30.20 in 10.0 mi East 10.4 mph 20.7 mph N/A   Overcast
3:51 PM 57.0 °F 48.9 °F 74% 30.19 in 5.0 mi East 13.8 mph 21.9 mph 0.00 in Rain Light Rain
4:51 PM 55.9 °F 50.0 °F 80% 30.17 in 9.0 mi East 10.4 mph 20.7 mph 0.01 in   Overcast
5:51 PM 57.0 °F 48.0 °F 72% 30.16 in 10.0 mi East 15.0 mph - N/A   Overcast
6:51 PM 55.9 °F 48.9 °F 77% 30.16 in 10.0 mi East 18.4 mph 26.5 mph 0.01 in   Overcast
7:51 PM 57.0 °F 46.9 °F 69% 30.13 in 10.0 mi East 17.3 mph 27.6 mph N/A   Overcast
8:51 PM 55.9 °F 48.9 °F 77% 30.11 in 8.0 mi East 18.4 mph 26.5 mph 0.00 in Rain Light Rain
9:51 PM 55.0 °F 48.9 °F 80% 30.07 in 10.0 mi East 23.0 mph 31.1 mph 0.01 in Rain Light Rain
10:51 PM 55.0 °F 50.0 °F 83% 30.04 in 6.0 mi East 17.3 mph 25.3 mph 0.02 in Rain Light Rain
11:51 PM 55.0 °F 51.1 °F 86% 29.99 in 6.0 mi East 16.1 mph 25.3 mph 0.13 in Rain Rain